[[{"header":{"parameterUnit":"m.s-1","parameterCategory":1,"la1":30.2991,"la2":30.254,"lo1":-89.0895,"lo2":-89.0444,"dy":0.0017,"dx":0.0017,"nx":28,"ny":28,"refTime":"2025-07-31T09:00:00:Z","depth":0,"parameterNumber":2,"parameterNumberName":"U-component_of_WINDS"},"data":[0,0,0,0,0,0,0,0,0,0,0,0,0,0,0,0,0,0,0,0,0,0,0,0,0,0,0,0,0,0,0,0,0,0,0,0,0,0,0,0,0,0,0,0,0,0,0,0,0,0,0,0,0,0,0,0,0,0,2.3683,2.3684,0,2.3759,2.376,2.3761,2.3692,2.369,2.3687,2.3684,2.3765,2.3769,2.3774,0,0,0,0,0,0,0,0,0,0,0,0,0,2.3478,2.3482,2.3683,2.3684,2.3685,2.3759,2.376,2.3761,2.3693,2.3689,2.3686,2.3683,2.3763,2.3769,2.3774,0,0,0,0,0,0,0,0,0,0,0,0,0,2.3562,2.3483,2.3682,2.3659,2.3658,2.3759,2.376,2.3762,2.3694,2.3689,2.3685,2.3681,2.3761,2.3768,2.3775,2.3904,0,0,2.3797,2.38,0,0,0,0,0,0,0,0,2.3557,2.357,2.3662,2.3661,2.366,2.3712,2.3718,2.3809,2.3695,2.368,2.3684,2.3679,2.3751,2.3758,2.3782,2.3907,2.3911,2.3798,2.3802,2.3805,2.3807,0,0,0,0,0,0,0,2.3552,2.3566,2.3713,2.3663,2.3662,2.3645,2.3653,2.3735,2.3738,2.3681,2.3676,2.3686,2.3749,2.3775,2.3783,2.3912,2.3797,2.3804,2.3808,2.3811,2.4146,2.4151,0,0,0,0,0,0,2.3548,2.3561,2.3711,2.3715,2.3597,2.3653,2.3661,2.37,2.3737,2.3739,2.369,2.3683,2.3765,2.3775,2.3786,2.3938,2.3805,2.3812,2.3816,2.4142,2.4147,2.4152,0,0,0,0,0,0,2.3544,2.3562,2.3707,2.3637,2.3654,2.3661,2.3705,2.3703,2.3729,2.3744,2.3744,2.3716,2.3762,2.3776,2.3875,2.394,2.3815,2.3821,2.4136,2.4143,2.415,2.4245,0,0,0,0,0,0,2.3538,2.3561,2.3609,2.3639,2.3658,2.3795,2.3709,2.3708,2.3741,2.3733,2.3768,2.377,2.376,2.3864,2.3882,2.3948,2.3827,2.413,2.4139,2.4147,2.4236,2.4254,2.427,0,0,0,0,0,2.3531,2.3634,2.3612,2.3631,2.3719,2.3799,2.381,2.3796,2.3747,2.3796,2.3805,2.3769,2.393,2.3875,2.3894,2.3963,2.4126,2.4137,2.4147,2.4228,2.425,2.4269,0,0,0,0,0,0,2.3612,2.3637,2.3614,2.3728,2.3762,2.3787,2.3848,2.382,2.3869,2.3859,2.384,2.3849,2.3953,2.3968,2.3906,2.4089,2.402,2.4035,2.4076,2.4097,2.4114,2.4108,2.3833,0,0,0,0,0,2.3644,2.3706,2.3724,2.3823,2.3841,2.3842,2.3876,2.3863,2.3897,2.3911,2.3927,2.3962,2.4021,2.406,2.4114,2.4238,2.4244,2.4295,2.4312,2.4325,2.4338,2.4404,2.4427,2.4186,2.4186,2.4186,0,0,2.3709,2.373,2.377,2.384,2.3865,2.3929,2.3855,2.3926,2.3974,2.3922,2.4015,2.4029,2.4067,2.4178,2.4228,2.4194,2.4406,2.4339,2.435,2.4355,2.4417,2.444,2.446,2.4193,2.4192,2.4191,0,0,2.3861,2.3883,2.3968,2.3994,2.4031,2.4031,2.4052,2.4081,2.4088,2.4181,2.4143,2.42,2.4302,2.433,2.4358,2.452,2.4489,2.4539,2.4627,2.4692,2.4711,2.4727,2.4785,2.4806,2.4552,2.4552,2.4552,0,2.3937,2.4033,2.4016,2.409,2.4122,2.4077,2.4163,2.4189,2.4243,2.4266,2.4227,2.4353,2.4375,2.4493,2.4532,2.4556,2.4579,2.4535,2.4709,2.4726,2.4741,2.4796,2.4818,2.4558,2.4557,2.4557,2.4556,0,2.4125,2.4192,2.4256,2.4308,2.4348,2.4428,2.4423,2.4465,2.4448,2.4452,2.4548,2.4573,2.4632,2.4659,2.4644,2.4775,2.4752,2.4712,2.4642,2.477,2.4821,2.4842,2.4566,2.4564,2.4562,2.4561,0,0,2.4329,2.4371,2.4395,2.4418,2.4456,2.4508,2.4586,2.4643,2.4679,2.4718,2.4783,2.487,2.4832,2.4864,2.4851,2.4908,2.5035,2.4861,2.4861,2.4892,2.518,2.521,2.5234,2.5014,2.5018,2.5021,2.5177,0,2.4482,2.4617,2.4604,2.4732,2.4794,2.4752,2.482,2.4851,2.4857,2.4911,2.4918,2.4979,2.4925,2.4944,2.4998,2.5008,2.5092,2.4997,2.5075,2.5078,2.5066,2.5261,2.5293,2.5438,2.5197,2.52,2.5202,0,2.4678,2.4723,2.4858,2.4886,2.4911,2.4973,2.5024,2.5075,2.511,2.511,2.5145,2.5123,2.5202,2.5131,2.524,2.5175,2.5206,2.5216,2.5221,2.5227,2.5147,2.5272,2.5484,2.5506,2.5234,2.5231,2.5229,0,2.4813,2.4908,2.5,2.5021,2.5057,2.5101,2.5118,2.5148,2.5183,2.5228,2.525,2.5304,2.5334,2.5376,2.5369,2.5318,2.548,2.5408,2.5483,2.5483,2.5518,2.5516,2.5738,2.554,2.5539,2.5539,2.5538,0,2.4985,2.5069,2.5061,2.5118,2.5211,2.5195,2.5288,2.5299,2.5327,2.5385,2.5353,2.5409,2.5396,2.5452,2.5447,2.5538,2.5552,2.5554,2.5552,2.5557,2.5556,2.5577,2.5566,2.5545,2.5543,2.5542,2.5541,0,2.5151,2.515,2.5247,2.5273,2.5282,2.5349,2.5371,2.5425,2.5428,2.5503,2.5519,2.5525,2.5589,2.5586,2.5659,2.5655,2.5767,2.5753,2.5755,2.5752,2.5826,2.5819,2.6068,2.61,2.5882,2.5884,2.5886,0,2.526,2.5324,2.5356,2.5393,2.5412,2.5472,2.5507,2.5495,2.5533,2.5577,2.5626,2.5686,2.5734,2.5838,2.5849,2.5905,2.5892,2.5975,2.59,2.5903,2.5892,2.5888,2.5895,2.599,2.5992,2.5994,2.5996,0,2.5454,2.545,2.5502,2.5554,2.5597,2.5638,2.5675,2.5707,2.5698,2.5743,2.5807,2.5844,2.5918,2.5979,2.6032,2.605,2.6022,2.602,2.604,2.6045,2.6044,2.6045,2.5795,2.6014,2.6012,2.6011,2.601,2.6009,2.5595,2.5649,2.568,2.5739,2.5765,2.5801,2.5852,2.5862,2.5916,2.5974,2.5964,2.6036,2.6069,2.6137,2.616,2.6217,2.6187,2.6216,2.6224,2.6231,2.6239,2.6035,2.6227,2.6226,2.6226,2.6225,2.6225,0,2.5786,2.5804,2.5859,2.5911,2.5958,2.5927,2.5966,2.6007,2.6071,2.6104,2.6151,2.6226,2.6285,2.63,2.6357,2.6399,2.6388,2.6415,2.6411,2.6416,2.6263,2.6239,2.6423,2.6423,2.6423,2.6423,2.6423,2.6423,2.5891,2.5981,2.5981,2.6084,2.6101,2.6172,2.6197,2.6229,2.6255,2.6339,2.6388,2.6397,2.6423,2.6482,2.6534,2.6537,2.656,2.6592,2.659,2.6446,2.6426,2.6408,2.6385,2.6597,2.6597,2.6738,2.6739,2.674]},{"header":{"parameterUnit":"m.s-1","parameterCategory":1,"la1":30.2991,"la2":30.254,"lo1":-89.0895,"lo2":-89.0444,"dy":0.0017,"dx":0.0017,"nx":28,"ny":28,"refTime":"2025-07-31T09:00:00:Z","depth":0,"parameterNumber":3,"parameterNumberName":"V-component_of_WINDS"},"data":[0,0,0,0,0,0,0,0,0,0,0,0,0,0,0,0,0,0,0,0,0,0,0,0,0,0,0,0,0,0,0,0,0,0,0,0,0,0,0,0,0,0,0,0,0,0,0,0,0,0,0,0,0,0,0,0,0,0,1.4118,1.4119,0,1.4209,1.421,1.4211,1.4201,1.4199,1.4198,1.4197,1.4287,1.4291,1.4294,0,0,0,0,0,0,0,0,0,0,0,0,0,1.3929,1.3932,1.4117,1.4119,1.412,1.4209,1.421,1.4211,1.4201,1.4199,1.4198,1.4196,1.4286,1.429,1.4295,0,0,0,0,0,0,0,0,0,0,0,0,0,1.4014,1.3933,1.4117,1.4126,1.4127,1.4209,1.421,1.4212,1.4202,1.4199,1.4197,1.4195,1.4284,1.429,1.4295,1.4374,0,0,1.4313,1.4315,0,0,0,0,0,0,0,0,1.401,1.4021,1.4123,1.4125,1.4127,1.4191,1.4177,1.4266,1.4202,1.4173,1.4197,1.4194,1.4257,1.4265,1.4286,1.4378,1.4382,1.4313,1.4316,1.4319,1.4321,0,0,0,0,0,0,0,1.4004,1.4017,1.4154,1.4125,1.4127,1.4123,1.4133,1.4194,1.4226,1.4176,1.4175,1.4186,1.4257,1.4281,1.4288,1.4383,1.4313,1.4318,1.4321,1.4324,1.4541,1.4543,0,0,0,0,0,0,1.3996,1.4012,1.4151,1.4156,1.4062,1.4128,1.4139,1.4173,1.4225,1.4231,1.4188,1.4185,1.4272,1.4282,1.4292,1.4386,1.4319,1.4324,1.4327,1.4538,1.4541,1.4544,0,0,0,0,0,0,1.3992,1.4009,1.4147,1.4084,1.4102,1.4134,1.4172,1.4176,1.42,1.4235,1.424,1.4207,1.4271,1.4284,1.4353,1.4388,1.4327,1.4332,1.4535,1.4539,1.4542,1.4575,0,0,0,0,0,0,1.3987,1.4007,1.4039,1.4085,1.4105,1.4209,1.4174,1.4179,1.421,1.4207,1.4254,1.4259,1.427,1.4345,1.4359,1.4395,1.4336,1.4532,1.4537,1.4541,1.4571,1.4579,1.4586,0,0,0,0,0,1.398,1.4044,1.4041,1.4057,1.4145,1.4211,1.4222,1.4235,1.4213,1.4244,1.4266,1.4258,1.4382,1.4352,1.4367,1.4406,1.453,1.4536,1.4541,1.4567,1.4577,1.4586,0,0,0,0,0,0,1.4001,1.405,1.4047,1.4128,1.4165,1.4209,1.4249,1.4245,1.4289,1.4285,1.4297,1.4308,1.4378,1.4399,1.4364,1.4483,1.4453,1.4462,1.4467,1.4477,1.4485,1.4479,1.4341,0,0,0,0,0,1.4015,1.4065,1.4105,1.4173,1.4192,1.4217,1.4246,1.4252,1.4291,1.4306,1.4334,1.437,1.4417,1.4448,1.4494,1.4573,1.4582,1.4607,1.4615,1.4621,1.4628,1.467,1.4681,1.4561,1.4561,1.4561,0,0,1.4044,1.4077,1.4109,1.4178,1.4207,1.4258,1.423,1.4285,1.4322,1.4314,1.4382,1.4403,1.4444,1.4518,1.4552,1.4538,1.4663,1.4628,1.4632,1.4637,1.4676,1.4688,1.4698,1.4565,1.4564,1.4564,0,0,1.4123,1.4154,1.4213,1.4243,1.4289,1.4305,1.4318,1.4362,1.4376,1.4444,1.4439,1.4481,1.4563,1.4592,1.4618,1.4705,1.4699,1.472,1.476,1.48,1.481,1.4818,1.4848,1.4859,1.4727,1.4727,1.4727,0,1.4154,1.4232,1.4244,1.4299,1.4329,1.4324,1.4383,1.4411,1.4468,1.4488,1.4471,1.4572,1.46,1.468,1.4701,1.4722,1.4737,1.4715,1.4808,1.4816,1.4824,1.4853,1.4865,1.4729,1.4729,1.4729,1.4728,0,1.4266,1.4319,1.4361,1.4417,1.4451,1.4508,1.4527,1.456,1.4562,1.4579,1.4647,1.468,1.4731,1.475,1.4753,1.483,1.4819,1.4805,1.4775,1.4838,1.4865,1.4876,1.4732,1.4731,1.4731,1.473,0,0,1.4363,1.4424,1.4439,1.4464,1.4512,1.4552,1.4607,1.4658,1.4685,1.4724,1.4769,1.4837,1.4824,1.4852,1.4858,1.4893,1.4959,1.4874,1.4875,1.4889,1.5044,1.5055,1.5067,1.4954,1.4957,1.4958,1.504,0,1.4447,1.4546,1.4558,1.4646,1.4694,1.4688,1.4736,1.477,1.4786,1.4828,1.4845,1.4893,1.4872,1.4889,1.4924,1.4944,1.499,1.4938,1.4995,1.4997,1.4986,1.5082,1.5094,1.517,1.5051,1.5053,1.5054,0,1.4559,1.4601,1.4694,1.4734,1.4754,1.4797,1.4843,1.4884,1.4921,1.493,1.4961,1.4962,1.5016,1.4983,1.5057,1.5021,1.5045,1.5058,1.5061,1.5067,1.503,1.509,1.5194,1.5206,1.5071,1.507,1.5069,0,1.462,1.4699,1.4765,1.4786,1.4834,1.4864,1.4885,1.492,1.4949,1.4989,1.5007,1.5052,1.5077,1.5111,1.5122,1.5097,1.5195,1.5164,1.5203,1.5203,1.5225,1.5224,1.5334,1.524,1.524,1.524,1.524,0,1.4712,1.4769,1.4793,1.4833,1.4895,1.4906,1.4967,1.4987,1.5017,1.506,1.5057,1.5097,1.511,1.5151,1.516,1.5219,1.523,1.5238,1.524,1.5238,1.5237,1.5255,1.525,1.5243,1.5242,1.5242,1.5241,0,1.4791,1.481,1.488,1.492,1.4931,1.4975,1.5008,1.5045,1.506,1.5114,1.5127,1.515,1.5198,1.5213,1.527,1.5276,1.5345,1.5342,1.5333,1.5333,1.5372,1.5368,1.5498,1.5515,1.541,1.5411,1.5412,0,1.485,1.4893,1.4937,1.4965,1.4988,1.5034,1.5063,1.5075,1.5105,1.5149,1.5181,1.5229,1.5267,1.5344,1.5365,1.5408,1.5406,1.5448,1.5412,1.5409,1.5406,1.5403,1.5407,1.5455,1.5456,1.5457,1.5458,0,1.4951,1.4957,1.5,1.5046,1.5081,1.5118,1.5153,1.5176,1.5192,1.5226,1.5275,1.5305,1.5364,1.541,1.5454,1.5473,1.5468,1.5469,1.548,1.5479,1.5472,1.5476,1.5352,1.5466,1.5465,1.5464,1.5464,1.5464,1.5021,1.5058,1.5095,1.5142,1.517,1.5202,1.5239,1.5258,1.53,1.5349,1.5353,1.5405,1.5438,1.5496,1.5518,1.5558,1.5546,1.5563,1.5567,1.5571,1.5574,1.5465,1.5566,1.5566,1.5566,1.5565,1.5565,0,1.5121,1.5144,1.5187,1.5236,1.5273,1.5265,1.5303,1.5334,1.5381,1.5412,1.545,1.5505,1.555,1.5574,1.5617,1.5645,1.5643,1.5656,1.5654,1.5658,1.5583,1.5568,1.5656,1.5656,1.5656,1.5656,1.5656,1.5656,1.5178,1.5241,1.5251,1.5326,1.5348,1.5401,1.5423,1.5452,1.5477,1.5539,1.5576,1.5592,1.5619,1.5665,1.5704,1.571,1.5726,1.574,1.5744,1.5673,1.5664,1.5655,1.5641,1.5743,1.5743,1.5816,1.5817,1.5817]}]]